Location: Marcé
(47.5801°N, 0.3280°W)
Time: 21:18:46
(UTC+01:00)

Explorer 7 - Pass Details

Date: 30 November 2021
Orbit: 483 x 674 km, 50.3° (Epoch: 17 January)

Event Time Altitude Azimuth Distance (km) Brightness Sun altitude
Rises 07:34:46 0° 211° (SSW) 2,789 10.3 -8.7°
Reaches altitude 10° 07:37:21 10° 199° (SSW) 1,856 9.6 -8.3°
Maximum altitude 07:40:51 26° 142° (SE) 1,101 9.2 -7.7°
Drops below altitude 10° 07:44:13 10° 85° (E) 1,769 10.5 -7.2°
Sets 07:46:37 0° 73° (ENE) 2,630 11.1 -6.9°
